Simultaneous Nadir Overpasses (SNOs) Predictions

Prediction of SNOs between LANDSAT-8 and METOP-B Satellite Orbit:

Table of predicted SNOs for the next 14.0 days since TLE Epoch: 12/23/2017
Index Date (LANDSAT-8) Time (LANDSAT-8) Lat,Lon (LANDSAT-8) SZA (LANDSAT-8 ) Date (METOP-B) Time (METOP-B) Lat,Lon (METOP-B) SZA (METOP-B ) Distance(km) Time Diff (sec)
1 12/24/2017 14:19:30 81.13, 5.02 106.46 12/24/2017 14:18:31 81.13, 5.20 106.45 3.11 59
2 12/24/2017 15:08:56 -81.15, 172.95 73.51 12/24/2017 15:09:11 -81.15, 172.95 73.50 0.38 15
3 12/27/2017 09:53:45 81.12, 71.28 106.30 12/27/2017 09:52:54 81.13, 71.45 106.31 3.19 51
4 12/27/2017 10:43:11 -81.14,-120.77 73.66 12/27/2017 10:43:34 -81.14,-120.76 73.64 0.44 23
5 12/30/2017 05:27:58 81.13, 137.86 106.14 12/30/2017 05:27:16 81.12, 137.69 106.10 3.05 42
6 12/30/2017 06:17:24 -81.15, -54.17 73.82 12/30/2017 06:17:55 -81.15, -54.11 73.80 1.02 31
7 01/02/2018 01:02:12 81.14,-155.60 105.90 01/02/2018 01:01:38 81.13,-155.73 105.87 2.34 34
8 01/02/2018 01:51:38 -81.16, 12.40 74.05 01/02/2018 01:52:17 -81.16, 12.52 74.03 2.03 39
9 01/04/2018 20:36:26 81.14, -89.09 105.60 01/04/2018 20:36:00 81.13, -89.16 105.58 1.33 26




NCC Satellite Simultaneous Nadir Overpasses (SNOs) Prediction Service
